Location: Unspecified
(0.0000°N, 0.0000°E)
Time: 04:48:43
(UTC+00:00)

S-56A Canister/Altair - Pass Details

Date: 07 December 2023
Orbit: 640 x 2488 km, 38.9° (Epoch: 24 February)

Event Time Altitude Azimuth Distance (km) Brightness Sun altitude
Rises 03:52:14 0° 207° (SSW) 6,058 12.1 -27.3°
Reaches altitude 10° 03:59:09 10° 187° (S) 4,803 11.8 -25.7°
Maximum altitude 04:05:47 15° 156° (SSE) 4,030 11.7 -24.2°
Drops below altitude 10° 04:11:30 10° 125° (SE) 4,054 12.3 -22.9°
Sets 04:16:21 0° 103° (ESE) 4,653 12.9 -21.8°
